This demonstration page uses our WeatherBlox Daily Observations layout. Learn more.

Left ArrowRight Arrow

Hourly Observations for February 1, 2015

Temp ( °F °C ) Dew Point ( °F °C ) Humidity (%) Winds ( mph kmh ) Pressure ( in mb ) Visibility ( mi km ) Precip ( " mm )
12:20 am 00:20 Cloudy with Light Snow 34 1 32 0 93 93 ENE 3 6 29.88 1012 1 2 0.00 0.00
12:44 am 00:44 Cloudy with Light Snow 34 1 32 0 93 93 E 5 7 29.88 1012 1 1 0.00 0.00
12:52 am 00:52 Cloudy with Light Snow 33 0.6 32 0 96 96 ENE 6 9 29.87 1011 1 1 0.06 1.52
12:59 am 00:59 Cloudy with Light Snow 33 0.6 32 0 96 96 ENE 5 7 29.85 1011 1 1 0.01 0.25
1:52 am 01:52 Cloudy with Light Snow 33 0.6 32 0 96 96 NNE 3 6 29.86 1011 1 1 0.05 1.27
2:52 am 02:52 Cloudy with Light Snow 33 0.6 32 0 96 96 NNE 5 7 29.84 1011 1 2 0.04 1.02
3:52 am 03:52 Cloudy with Light Snow 33 0.6 31 -0.6 92 92 NE 8 13 29.83 1010 2 2 0.02 0.51
3:59 am 03:59 Cloudy with Light Snow 33 0.6 32 0 96 96 NE 8 13 29.83 1010 2 2 0.00 0.03
4:52 am 04:52 Partly Cloudy with Scattered Snow Showers 33 0.6 32 0 96 96 N 10 17 29.83 1010 2 2 0.00 0.03
4:59 am 04:59 Cloudy with Light Snow 33 0.6 32 0 96 96 N 12 19 29.83 1010 2 2 0.00 0.03
5:20 am 05:20 Windy with Snow Likely 30 -1 30 -1 100 100 N 22 35 29.85 1011 1 2 0.00 0.00
5:52 am 05:52 Windy with Snow Likely 29 -1.7 28 -2.2 96 96 N 21 33 29.85 1011 1 2 0.01 0.25
6:52 am 06:52 Windy with Snow Likely 27 -2.8 25 -3.9 92 92 N 23 37 29.89 1012 1 1 0.00 0.03
7:47 am 07:47 Windy with Snow Likely 25 -4 21 -6 86 86 N 25 41 29.94 1014 1 1 0.00 0.03
7:52 am 07:52 Windy with Snow Likely 23 -5 21 -6.1 92 92 N 26 43 29.93 1014 1 1 0.00 0.03
8:44 am 08:44 Windy with Snow Likely 21 -6 19 -7 93 93 N 25 41 30.03 1017 1 2 0.00 0.00
8:52 am 08:52 Windy with Snow Likely 22 -5.6 19 -7.2 89 89 N 26 43 29.97 1015 2 2 0.00 0.03
9:15 am 09:15 Windy with Snow Likely 21 -6.1 18 -7.8 88 88 N 25 41 30.06 1018 1 1 0.00 0.03
9:52 am 09:52 Mostly Cloudy with Light Snow 20 -6.7 17 -8.3 89 89 N 31 50 30.01 1016 1 1 0.00 0.03
10:52 am 10:52 Mostly Cloudy with Light Snow 19 -7.2 16 -8.9 88 88 NNW 25 41 30.05 1018 1 1 0.00 0.03
11:05 am 11:05 Mostly Cloudy with Light Snow 19 -7.2 16 -8.9 88 88 NNW 30 48 30.12 1020 1 1 0.00 0.03
11:52 am 11:52 Mostly Cloudy with Light Snow 18 -7.8 14 -10 84 84 NNW 29 46 30.07 1018 1 1 0.00 0.03
12:11 pm 12:11 Mostly Cloudy with Light Snow 17 -8.3 13 -10.6 84 84 NNW 26 43 30.15 1021 1 1 0.00 0.03
12:20 pm 12:20 Mostly Cloudy with Light Snow 18 -8 14 -10 86 86 NNW 31 50 30.15 1021 1 1 0.00 0.00
12:52 pm 12:52 Mostly Cloudy with Light Snow 17 -8.3 13 -10.6 84 84 NNW 29 46 30.10 1019 1 1 0.00 0.03
1:48 pm 13:48 Mostly Cloudy with Light Snow 16 -9 12 -11 86 86 NNW 29 46 30.18 1022 1 1 0.00 0.00
1:52 pm 13:52 Windy with Snow Likely 16 -8.9 12 -11.1 84 84 NNW 28 44 30.12 1020 1 1 0.02 0.51
2:52 pm 14:52 Windy with Snow Likely 15 -9.4 10 -12.2 80 80 NNW 24 39 30.15 1021 1 1 0.00 0.03
3:16 pm 15:16 Windy with Snow Likely 14 -10 10 -12 85 85 N 28 44 30.21 1023 1 2 0.00 0.00
3:23 pm 15:23 Cloudy with Blowing Snow 14 -10 10 -12.2 84 84 NNW 31 50 30.21 1023 1 2 0.00 0.03
3:52 pm 15:52 Cloudy with Blowing Snow 14 -10 9 -12.8 80 80 NNW 31 50 30.18 1022 2 2 0.00 0.03
4:44 pm 16:44 Cloudy with Blowing Snow 12 -11 9 -13 85 85 NNW 25 41 30.30 1026 0 0 0.00 0.00
4:52 pm 16:52 Cloudy with Blowing Snow 13 -10.6 8 -13.3 81 81 NNW 26 43 30.22 1023 0 0 0.00 0.00
5:52 pm 17:52 Cloudy with Light Snow 34 1 32 0 93 93 SE 7 11 30.03 1017 1 2 0.00 0.00
6:19 pm 18:19 Cloudy with Blowing Snow 11 -11.7 6 -14.4 81 81 NNW 20 31 30.36 1028 2 2 0.00 0.00
6:35 pm 18:35 Cloudy with Blowing Snow 11 -11.7 6 -14.4 81 81 N 24 39 30.36 1028 2 3 0.00 0.00
6:52 pm 18:52 Mostly Cloudy with Blowing Snow 11 -11.7 6 -14.4 81 81 NNW 24 39 30.30 1026 4 6 0.00 0.00
7:52 pm 19:52 Mostly Cloudy 9 -12.8 4 -15.6 80 80 NNW 20 31 30.34 1027 10 16 0.00 0.00
8:52 pm 20:52 Mostly Cloudy 7 -13.9 2 -16.7 80 80 NNW 20 31 30.37 1028 10 16 0.00 0.00
9:24 pm 21:24 Mostly Cloudy 7 -14 1 -17 78 78 NNW 16 26 30.45 1031 10 16 0.00 0.00
9:52 pm 21:52 Mostly Cloudy 6 -14.4 1 -17.2 79 79 NNW 15 24 30.38 1029 10 16 0.00 0.00
10:52 pm 22:52 Mostly Clear 5 -15 -1 -18.3 76 76 NNW 14 22 30.39 1029 10 16 0.00 0.00
11:52 pm 23:52 Clear 2 -16.7 -2 -18.9 83 83 NNW 13 20 30.41 1030 10 16 0.00 0.00

Powered by AerisWeather